Retour au catalogue

STARLINK-34368

ActifCommunicationsVLEO
NORAD 64311·PAYLOAD·🇺🇸 United States

Lancé Jun 8, 2025 depuis Vandenberg Space Force Base

Loading…

Prochains Passages (prochaines 24 heures)

TLE

FraisSource: CelesTrak SupGP

Époque: Sep 14, 2026, 15:27 UTC

1 64311C 25123W   26257.64423611 -.00044994  00000+0 -15649-2 0  2572
2 64311  70.0001  76.4746 0003270 268.4087 359.8812 15.29607649    12

Suivez STARLINK-34368 en temps réel avec AllMySat

Download on the App Store